sat.trackr.live / text

‹ back to catalog

JCSAT-16

NORAD 41729 · 2016-050A

PAYLOAD ACTIVE UNKNOWN

§ Identity

Operator
Country
JPN
Launch date
2016-08-14
Launch site
AFETR
Launch vehicle
Mass (kg)
RCS (m²)
18.90

Purposes: comms

External: N2YO · Heavens-Above · Gunter

§ Orbital elements

Epoch: 2026-09-08T11:38:38.701824Z

Period
1,436.12 min
Inclination
0.0175°
Eccentricity
0.0001086
Mean motion
1.00270187 rev/d
Perigee alt
35,782.5 km
Apogee alt
35,791.6 km
Semi-major
42,165.2 km
B*
0.0000e+0
RAAN
136.3192°
Arg perigee
52.7759°
Mean anomaly
117.0647°
Rev number
3,690

§ Raw data

JCSAT-161 41729U 16050A   26251.48517016 -.00000272  00000+0  00000+0 0  99932 41729   0.0175 136.3192 0001086  52.7759 117.0647  1.00270187 36903

JSON: /api/v1/satellites/41729 · /tle

For live sub-satellite position, see the globe view (requires WebGL).

§ Visibility from observer

Set your observer location to see the next 7 days of passes ≥ 10°. The values pass through the URL so the page stays shareable.

No JS? Fill the form by hand. The geolocation button needs JavaScript.